Location: Archemont
(49.1579°N, 1.7598°E)
Time: 15:55:38
(UTC+00:00)

NOAA 6 - Pass Details

Date: 03 February 2023
Orbit: 770 x 786 km, 98.7° (Epoch: 30 March)

Event Time Altitude Azimuth Distance (km) Brightness Sun altitude
Rises 17:45:51 0° 169° (S) 3,249 7.3 -9.0°
Reaches altitude 10° 17:48:10 10° 171° (S) 2,328 6.6 -9.4°
Maximum altitude 17:53:18 74° 256° (WSW) 820 4.3 -10.2°
Drops below altitude 10° 17:58:30 10° 342° (NNW) 2,355 6.6 -11.0°
Sets 18:00:51 0° 344° (NNW) 3,290 7.3 -11.4°
